SCP
0 0 0 -0 -0 0 0 0 0 0 0 0 0 0 0 0 0 0 0 0 0 0 0 0 0 0 0 0 0 0 0 0 0 0 0 0 0 0 0 0 0 0 0 0 0 0 0 0 0 0 0 0 0 0
0 0 0 0 0 0 0 0 0 0 0 0 0 0 0 0 0 0 0 0 0 0 0 0 0 0 0 0 0 0 0 0 0 0 0 0 0 0 0 0 0 0 0 0 0 0 0 0 0 0 0 0 0 0
0 -0 0 0 0 0 0 0 0 0 0 0 0 0 0 0 0 0 0 0 0 0 0 0 0 0 0 0 0 0 0 0 0 0 0 0 0 0 0 0 0 0 0 0 0 0 0 0 0 0 0 0 0 0
0 0 0 0 0 0 0 0 0 0 0 0 0 0 0 0 0 0 0 0 0 0 0 0 0 0 0 0 0 0 0 0 0 0 0 0 0 0 0 0 0 0 0 0 0 0 0 0 0 0 0 0 0 0
0 0 0 0 0 0 0 0 0 0 0 0 0 0 0 0 0 0 0 0 0 0 0 0 0 0 0 0 0 0 0 0 0 0 0 0 0 0 0 0 0 0 0 0 0 0 0 0 0 0 0 0 0 0
0 0 0 0 0 0 0 0 0 0 0 0 0 0 0 0 0 0 0 0 0 0 0 0 0 0 0 0 0 0 0 0 0 0 0 0 0 0 0 0 0 0 0 0 0 0 0 0 0 0 0 0 0 0
0 0 0 0 0 0 0 0 0 0 0 0 0 0 0 0 0 0 0 0 0 0 0 0 0 0 0 0 0 0 0 0 0 0 0 0 0 0 0 0 0 0 0 0 0 0 0 0 0 0 0 0 0 0
0 0 0 0 0 0 0 0 0 0 0 0 0 0 0 0 0 0 0 0 0 0 0 0 0 0 0 0 0 0 0 0 0 0 0 0 0 0 0 0 0 0 0 0 0 0 0 0 0 0 0 0 0 0
0 0 0 0 0 0 0 0 0 0 0 0 0 0 0 0 0 0 0 0 0 0 0 0 0 0 0 0 0 0 0 0 0 0 0 0 0 0 0 0 0 0 0 0 0 0 0 0 0 0 0 0 0 0
0 0 0 0 0 0 0 0 0 0 0 0 0 0 0 0 0 0 0 0 0 0 0 0 0 0 0 0 0 0 0 0 0 0 0 0 0 0 0 0 0 0 0 0 0 0 0 0 0 0 0 0 0 0
0 0 0 0 0 0 0 0 0 0 0 0 0 0 0 0 0 0 0 0 0 0 0 0 0 0 0 0 0 0 0 0 0 0 0 0 0 0 0 0 0 0 0 0 0 0 0 0 0 0 0 0 0 0
0 0 0 0 0 0 0 0 0 0 0 0 0 0 0 0 0 0 0 0 0 0 0 0 0 0 0 0 0 0 0 0 0 0 0 0 0 0 0 0 0 0 0 0 0 0 0 0 0 0 0 0 0 0
0 0 0 -0 0 0 0 0 0 0 0 0 0 0 0 0 0 0 0 0 0 0 0 0 0 0 0 0 0 0 0 0 0 0 0 0 0 0 0 0 0 0 0 0 0 0 0 0 0 0 0 0 0 0
0 0 0 0 0 0 0 0 0 0 0 0 0 0 0 0 0 0 0 0 0 0 0 0 0 0 0 0 0 0 0 0 0 0 0 0 0 0 0 0 0 0 0 0 0 0 0 0 0 0 0 0 0 0
0 0 0 0 -0 -0 0 0 0 0 0 0 0 0 0 0 0 0 0 0 0 0 0 0 0 0 0 0 0 0 0 0 0 0 0 0 0 0 0 0 0 0 0 0 0 0 0 0 0 0 0 0 0 0
0 0 0 0 0 0 0 0 0 0 0 0 0 0 0 0 0 0 0 0 0 0 0 0 0 0 0 0 0 0 0 0 0 0 -0 0 0 0 0 0 0 0 0 0 0 0 0 -0 0 0 0 0 0 0
0 0 -0 0 0 0 0 0 0 0 0 0 0 0 0 0 0 0 0 0 0 0 0 0 0 0 0 0 0 0 0 0 0 -0 0 0 0 0 0 0 0 0 0 0 0 0 -0 0 0 0 0 0 0 0
0 0 0 0 0 0 0 0 0 0 0 0 0 0 0 0 0 0 0 0 0 0 0 0 0 0 0 0 0 0 0 0 0 0 0 0 0 0 0 -0 -0 0 0 0 -0 -0 0 0 0 0 0 0 0 -0
0 0 0 0 0 0 0 0 0 0 0 0 0 0 -0 0 -0 0 0 0 0 0 0 0 0 0 0 0 0 0 0 0 0 0 0 0 0 -0 -0 -0 -0 -0 -0 -0 -0 0 0 0 0 0 0 0 -0 -0
0 0 0 0 0 0 0 0 0 0 0 0 0 0 0 0 0 0 0 0 0 0 0 0 0 0 0 0 0 0 0 0 0 0 0 0 0 0 -0 -0 0 -0 0 0 0 0 0 0 0 0 -0 -0 0 0
0 0 0 0 0 0 0 0 0 0 0 0 0 -0 0 0 -0 -0 0 0 0 0 0 0 0 0 0 0 0 0 0 0 0 0 0 0 0 0 0 0 0 0 0 0 0 0 0 0 0 -0 -0 0 0 0
0 0 0 0 0 0 0 0 0 0 0 0 0 0 0 0 0 0 0 0 0 0 0 0 0 0 0 0 0 0 0 0 0 0 0 -0 0 0 0 0 0 0 0 0 0 0 0 0 0 0 0 -0 -0 -0
0 0 0 0 0 0 0 0 0 0 0 0 0 0 0 0 0 0 0 0 0 0 0 0 0 0 0 0 0 0 0 0 0 0 0 0 0 0 0 0 0 0 0 0 0 0 0 0 0 0 0 -0 -0 0
0 0 0 0 0 0 0 0 0 0 0 0 0 0 0 0 0 0 0 0 0 0 0 0 0 0 0 0 0 0 0 0 0 0 0 0 0 0 0 0 0 0 0 0 0 0 0 0 0 -0 -0 -0 0 0
0 0 0 0 0 0 0 0 0 0 0 0 0 0 0 0 0 0 0 0 0 0 0 0 0 0 0 0 0 0 0 0 0 -0 0 0 0 0 0 0 0 0 0 0 0 0 0 -0 -0 -0 -0 0 0 0
0 0 0 0 0 0 0 0 0 0 0 0 0 0 0 0 0 0 0 0 0 0 0 0 0 0 0 0 0 0 0 0 -0 -0 0 0 0 0 0 0 0 0 -0 -0 0 -0 -0 -0 -0 -0 -0 0 0 0
0 0 0 0 0 0 0 0 0 0 0 0 0 0 0 0 0 0 0 0 0 0 0 0 0 0 0 0 0 0 0 0 0 0 -0 -0 -0 -0 -0 0 0 0 -0 -0 -0 -0 -0 -0 -0 -0 0 0 0 0
0 0 0 0 0 0 0 0 0 0 0 0 0 0 0 0 0 0 0 0 0 0 0 0 0 0 0 0 0 0 0 0 -0 0 0 0 0 -0 -0 -0 -0 0 -0 -0 -0 -0 -0 -0 0 0 0 0 0 0
0 0 0 0 0 0 0 0 0 0 0 0 0 0 0 0 0 0 0 0 0 0 0 0 0 0 0 0 0 0 0 0 -0 -0 -0 -0 -0 -0 -0 -0 0 0 -0 0 0 0 -0 0 0 0 0 0 -0 -0
0 0 0 0 0 0 0 0 0 0 0 0 0 0 0 0 0 0 0 0 0 0 0 0 0 0 0 0 0 0 0 0 -0 -0 0 -0 -0 -0 -0 0 0 0 0 0 0 0 0 0 0 -0 -0 -0 -0 0
0 0 0 0 0 0 0 0 0 0 0 0 0 0 0 0 0 0 0 0 0 0 0 0 0 0 0 0 0 0 0 0 0 0 0 0 -0 -0 -0 0 0 0 -0 0 0 -0 -0 -0 -0 -0 -0 -0 -0 0
0 0 0 0 0 0 0 0 0 0 0 0 0 0 0 0 0 0 0 0 0 0 0 0 0 0 0 0 0 0 0 -0 -0 0 -0 -0 0 0 -0 -0 0 0 0 0 0 -0 -0 -0 -0 -0 -0 0 0 0
0 0 0 0 0 0 0 0 0 0 0 0 0 0 0 0 0 0 0 0 0 0 0 0 0 0 0 0 0 0 0 0 -0 -0 0 0 0 -0 -0 -0 -0 -0 0 0 0 -0 0 0 -0 0 0 0 0 0
Wind_Speed_500mb
25 28 30 30 32 35 35 23 14 8 12 13 16 18 17 11 7 7 8 6 4 10 23 13 8 2 8 10 4 14 6 5 4 6 5 5 6 3 5 5 2 7 9 6 6 5 9 20 14 11 6 20 32 27
28 26 26 28 30 31 42 28 22 17 14 17 19 21 14 13 7 5 7 12 12 16 17 22 31 31 28 20 14 9 8 7 4 6 4 7 6 6 4 8 1 5 1 5 6 2 2 9 3 5 17 31 23 24
29 28 27 27 27 29 31 35 29 20 16 17 20 21 13 16 11 10 9 13 15 14 27 27 12 14 15 8 3 13 7 10 4 3 7 5 8 5 8 6 8 3 4 5 8 4 5 11 16 22 27 30 28 24
30 29 29 29 25 27 28 33 33 23 18 19 21 21 19 17 16 14 14 12 11 9 8 8 6 9 19 12 4 7 13 7 3 7 7 5 5 3 4 5 4 3 18 13 4 5 11 11 18 31 32 30 28 23
32 31 29 29 27 25 27 30 32 28 24 21 20 21 20 19 17 16 18 17 18 10 7 18 22 12 20 21 15 7 10 7 5 3 4 5 8 8 4 4 6 15 13 9 4 28 7 25 37 37 35 30 24 17
32 31 31 29 28 25 25 28 31 30 29 23 19 19 17 16 12 9 8 19 23 21 6 6 6 6 15 23 18 11 9 4 3 6 7 7 5 2 7 5 4 17 14 9 6 29 11 39 40 34 32 28 21 14
33 33 32 31 28 23 23 27 29 32 30 27 18 18 16 14 14 12 6 4 22 21 4 10 8 1 16 21 14 7 7 6 6 7 5 6 3 2 4 7 10 17 18 15 27 42 31 36 28 34 28 24 16 12
31 31 31 30 28 25 22 26 29 31 31 27 17 16 14 13 13 14 16 9 24 9 5 5 6 4 15 7 7 6 6 7 8 6 6 6 8 2 5 5 14 20 28 33 36 12 30 40 43 36 27 20 16 18
35 33 32 28 28 26 23 25 28 31 35 17 13 9 7 9 9 7 12 18 18 1 5 4 4 6 7 8 8 5 6 4 2 3 4 5 4 8 7 24 31 39 25 43 27 35 41 41 40 33 25 21 19 23
35 33 30 29 24 24 22 22 25 31 20 11 5 5 6 11 17 23 13 14 16 9 9 7 5 4 8 6 5 6 5 4 5 3 5 3 5 8 12 25 39 45 40 53 45 32 35 35 34 29 22 17 18 27
28 27 27 27 26 22 20 19 24 27 6 2 3 3 10 17 16 9 7 10 11 7 14 12 16 3 11 5 7 1 5 2 6 5 5 4 5 9 21 39 51 38 54 37 21 26 23 23 33 28 23 23 29 29
27 26 25 25 24 22 18 15 23 13 4 6 6 4 13 10 8 9 8 5 9 8 12 11 12 16 8 9 6 5 5 4 6 9 5 4 5 14 35 49 55 46 49 31 24 32 28 26 23 21 25 33 32 29
28 27 24 21 21 17 13 10 17 12 9 10 5 5 7 8 5 12 15 6 6 9 12 15 9 12 9 7 9 5 7 5 12 6 4 6 5 20 43 50 47 47 43 31 34 28 26 24 20 23 33 29 31 24
19 14 14 14 14 13 8 9 10 7 11 7 7 6 8 9 8 5 4 2 2 5 6 14 9 6 7 6 4 7 5 7 6 7 8 5 18 33 50 55 55 55 38 35 32 30 25 23 30 30 27 31 26 22
13 7 4 5 10 10 8 11 10 12 6 7 7 8 12 2 5 5 6 2 11 10 4 10 4 6 3 7 2 8 8 8 7 6 5 6 23 50 56 56 59 53 44 38 34 30 26 29 34 34 32 29 24 19
15 13 8 11 12 12 13 11 9 16 6 6 8 7 6 8 8 13 18 14 21 13 7 4 5 5 5 7 9 8 15 8 5 5 6 12 36 55 61 63 58 50 45 39 34 28 30 36 36 35 33 28 21 16
6 6 9 3 9 12 14 13 11 7 6 7 6 8 5 3 8 15 15 19 30 7 3 4 11 8 6 7 9 7 10 7 7 12 13 24 49 62 66 62 55 48 43 38 33 32 38 37 35 31 26 20 15 11
9 9 6 8 6 9 10 13 7 7 9 11 6 2 11 6 9 21 19 26 22 19 10 3 3 8 7 10 9 8 8 16 14 14 20 36 56 64 64 57 50 46 41 37 32 42 38 35 30 22 16 11 11 15
5 5 1 2 8 5 6 7 7 6 11 7 9 12 7 7 13 22 26 29 26 20 13 7 6 6 7 7 13 20 26 25 25 28 36 51 60 61 56 50 49 46 41 36 38 40 35 29 23 19 15 14 16 21
8 7 2 6 10 4 4 6 7 7 7 3 8 12 7 9 16 20 24 23 15 6 8 7 6 4 8 23 25 27 35 33 43 47 45 54 54 52 49 49 50 46 41 37 36 34 29 25 22 18 18 16 11 7
8 2 3 4 3 9 6 5 8 9 4 6 7 9 7 17 13 8 9 7 9 8 8 12 9 13 15 22 22 30 33 43 49 64 70 56 48 46 47 47 48 48 42 41 36 29 21 19 23 26 20 11 5 13
4 6 3 8 7 6 9 11 8 6 6 6 6 5 4 7 3 5 11 12 9 10 9 7 11 13 22 29 39 42 46 45 42 50 54 55 54 49 47 48 51 46 38 35 31 27 24 24 30 27 16 6 7 15
8 12 9 9 9 8 5 9 8 10 6 2 7 5 7 5 9 16 8 8 8 10 14 14 15 22 37 48 53 51 42 36 41 48 49 44 43 40 43 45 45 42 35 31 30 32 27 28 25 18 9 4 14 14
18 8 6 6 9 4 5 9 11 7 5 3 4 1 3 9 13 3 4 5 7 7 18 30 40 55 54 55 51 44 39 38 42 40 38 39 41 38 37 38 39 33 27 28 29 29 30 25 21 15 8 1 10 10
7 8 7 6 6 7 8 7 8 5 6 10 6 10 8 17 6 5 4 6 13 12 31 45 54 54 69 54 45 40 37 31 35 41 37 38 42 43 39 34 30 28 31 28 26 22 23 28 30 21 15 11 9 14
6 5 7 9 7 9 4 5 6 6 4 6 10 1 5 3 5 6 3 10 20 26 34 49 59 61 54 50 46 40 34 29 27 32 34 33 32 39 41 35 28 23 28 33 22 24 25 23 20 19 19 19 17 11
3 6 8 10 9 10 6 4 3 2 5 4 3 1 4 6 5 4 13 21 39 38 38 40 41 47 50 44 41 39 35 28 20 25 30 31 33 34 31 27 25 27 33 37 31 24 17 9 11 12 11 13 15 9
7 10 7 13 6 5 4 2 3 3 3 2 4 2 4 5 3 7 17 39 48 55 45 38 33 34 39 40 40 38 33 27 26 32 35 37 32 31 27 26 30 33 29 26 21 15 9 8 9 11 12 13 15 9
6 9 5 6 4 5 5 3 4 4 9 4 2 4 4 7 7 23 37 48 53 51 26 32 37 38 37 35 34 31 30 29 33 36 34 32 33 24 23 29 31 26 22 19 15 12 11 11 10 11 13 10 8 11
3 10 6 4 3 4 8 12 13 16 19 19 19 27 30 27 20 33 45 51 51 31 25 27 29 27 25 28 32 31 27 25 25 27 33 33 30 31 30 29 18 17 22 18 12 11 18 16 17 15 9 5 3 11
17 10 4 10 4 10 13 13 26 31 32 31 29 32 28 34 48 38 40 42 42 23 23 25 23 17 21 22 24 31 30 26 24 23 18 18 34 34 33 25 21 25 21 16 12 15 17 16 15 11 6 3 11 18
14 11 6 6 5 13 12 18 19 13 18 27 29 26 22 17 15 18 23 21 26 28 29 29 21 19 23 24 24 23 20 21 20 29 21 25 33 34 30 28 32 25 21 18 14 12 12 13 9 6 3 7 13 20
5 6 4 4 6 7 11 7 8 9 16 12 17 23 22 12 12 10 19 22 21 22 23 23 21 23 30 31 26 22 21 17 18 22 29 36 37 30 35 38 29 24 19 13 11 10 9 8 7 8 4 7 12 14
Wind_Direction_500mb
316 318 324 328 335 339 340 332 327 289 291 294 313 329 327 310 295 310 259 256 284 283 285 276 277 255 347 31 340 323 14 29 32 76 116 112 125 102 101 83 198 161 137 141 128 179 236 155 140 208 81 129 152 153
315 312 317 323 323 332 333 335 324 292 293 293 296 304 312 312 278 277 239 252 281 279 272 284 274 279 280 277 277 41 333 332 278 104 99 129 125 152 140 158 141 170 325 174 231 96 65 171 65 169 141 145 138 139
319 314 314 315 322 320 325 330 326 322 295 284 292 300 306 303 275 248 253 258 283 294 294 277 288 240 249 280 259 69 314 299 333 102 129 106 119 161 152 157 120 116 178 118 168 151 136 152 133 134 138 141 142 139
306 311 311 314 314 315 315 323 324 322 310 294 291 297 298 291 276 251 243 236 263 281 290 282 256 222 217 212 184 225 274 303 73 68 79 88 105 221 132 106 184 109 154 135 109 157 137 161 151 149 142 141 140 137
301 302 302 308 307 304 306 310 321 320 315 302 293 292 291 278 260 251 253 238 234 227 295 290 306 204 212 204 203 226 259 321 348 86 66 93 112 134 87 154 183 192 159 187 200 179 153 170 162 155 149 146 143 139
305 305 301 298 305 295 297 298 314 316 312 305 299 296 291 274 248 250 247 230 220 213 275 290 306 194 177 185 195 202 227 233 50 76 88 95 126 218 146 179 140 184 176 132 128 153 137 148 152 153 151 148 142 134
306 306 301 297 294 295 295 298 303 310 306 304 290 283 276 266 237 215 217 261 191 185 257 293 303 192 162 163 170 150 126 109 96 95 74 111 132 110 128 185 159 181 175 166 147 142 119 151 157 156 157 151 143 133
314 312 309 297 288 289 284 288 296 305 305 298 284 274 264 253 234 226 233 236 171 184 247 277 276 273 160 147 113 118 107 111 64 118 125 130 134 97 210 164 146 152 149 141 149 161 161 158 154 155 159 153 148 145
307 307 302 292 287 287 281 286 297 301 301 291 274 259 239 192 182 189 183 165 176 192 277 245 255 154 153 103 105 92 104 105 85 124 119 174 144 211 205 176 167 158 153 151 139 140 148 153 157 159 164 164 158 155
303 302 295 293 286 281 274 278 295 304 302 285 210 170 172 165 158 135 137 165 199 231 227 253 235 240 165 133 93 118 55 105 170 87 123 221 232 249 210 187 172 162 162 153 132 135 149 155 163 169 169 165 161 157
303 296 292 284 282 273 266 275 297 309 328 130 178 193 151 153 152 182 179 193 177 225 210 234 213 221 190 164 129 139 133 137 190 143 226 184 239 210 183 170 170 162 161 155 137 143 149 171 173 173 173 167 159 158
298 290 288 280 273 269 251 272 306 289 226 205 228 206 153 175 191 198 185 164 213 227 198 196 202 200 185 166 130 147 112 178 179 139 202 233 226 191 173 169 166 162 159 145 142 150 152 159 165 167 165 159 159 157
295 288 282 278 266 239 232 290 291 275 212 211 226 198 186 191 198 187 181 186 220 203 195 184 174 161 155 162 91 147 154 147 131 183 222 237 156 177 170 165 162 162 158 151 149 153 152 156 159 159 154 157 157 156
309 296 292 262 238 196 223 293 252 240 190 218 205 203 211 182 214 201 211 177 339 311 215 180 139 186 161 144 136 133 93 153 157 200 217 216 194 174 168 168 164 160 162 159 157 155 155 153 149 148 151 153 151 149
330 298 300 253 200 209 227 219 217 208 233 242 219 214 203 198 78 29 328 342 7 333 173 161 140 191 132 119 106 120 158 185 205 215 213 191 177 171 166 165 162 161 163 161 159 158 155 153 150 147 146 144 143 145
309 273 254 258 236 228 205 196 204 200 260 236 238 275 175 157 80 53 34 35 2 335 197 198 149 184 170 142 159 176 164 185 179 210 194 178 169 170 167 164 163 163 162 159 157 155 152 151 148 146 147 148 146 144
342 350 343 126 149 172 176 176 163 221 261 265 237 240 259 15 68 39 21 8 352 338 252 204 186 185 122 143 148 173 168 160 173 180 181 181 172 168 166 163 163 162 160 157 154 151 150 152 153 156 161 164 166 164
48 13 88 119 152 171 186 190 199 225 244 254 264 198 177 226 284 323 312 324 353 348 318 354 318 194 163 164 177 168 166 155 146 154 161 165 165 163 164 163 163 162 159 156 155 153 155 157 162 165 171 179 175 186
347 348 20 188 185 183 205 221 219 248 231 240 211 181 159 287 305 294 298 313 317 309 278 265 245 199 176 195 161 162 173 165 153 145 146 155 161 162 164 165 163 162 159 157 157 157 157 155 159 158 154 153 164 181
350 355 248 239 211 273 245 228 223 255 254 203 211 191 203 227 263 296 305 306 296 236 223 228 236 233 193 169 172 192 180 168 150 134 142 157 164 168 169 168 165 162 159 157 159 163 166 169 169 160 160 159 169 225
298 291 86 159 236 247 261 243 237 238 267 243 199 212 219 249 246 215 250 208 204 225 233 233 243 204 183 154 150 157 158 161 156 155 156 160 166 169 168 169 165 164 164 166 169 174 182 188 183 174 179 186 250 313
128 141 238 243 233 247 256 231 242 264 233 226 205 226 273 259 226 229 211 209 232 234 227 232 207 166 146 142 143 143 142 151 155 156 155 154 156 162 167 170 167 167 169 169 168 163 156 156 161 168 164 133 88 100
246 254 238 231 227 231 247 213 236 207 215 206 176 219 226 239 215 187 209 227 243 227 220 201 170 150 143 136 134 133 136 139 145 153 156 159 160 162 165 166 171 169 169 172 167 163 156 158 161 159 150 59 160 150
301 244 236 245 231 238 241 224 219 188 174 231 240 253 226 225 160 216 206 204 197 176 171 156 149 138 131 134 132 133 135 137 141 147 154 156 154 155 161 166 171 176 176 173 172 174 180 180 184 186 182 115 184 196
254 211 228 256 260 239 234 186 167 171 220 216 208 224 196 185 155 126 148 136 133 130 153 150 143 140 138 135 133 131 134 140 145 145 152 158 155 154 157 161 166 170 171 169 172 172 179 186 195 208 221 243 251 231
238 235 218 224 216 224 204 198 203 218 198 213 225 325 6 17 79 76 86 134 120 111 148 147 143 139 138 140 138 139 137 135 144 147 149 158 165 163 163 165 166 178 184 184 174 170 172 182 200 226 245 258 264 246
273 280 265 266 266 285 264 261 293 287 267 44 57 104 222 159 105 93 124 133 123 110 116 129 141 140 139 139 137 136 136 131 124 143 143 144 148 154 158 163 161 152 149 159 167 175 182 210 245 258 291 248 214 203
252 269 282 322 306 299 284 265 281 274 274 206 218 27 53 58 101 121 133 144 133 131 126 130 145 143 140 138 142 143 139 130 126 137 141 147 149 151 154 149 156 163 165 169 180 198 233 239 227 258 279 196 198 232
261 293 272 256 255 314 307 303 278 286 309 300 51 62 64 59 109 132 143 151 138 142 144 135 129 139 142 142 145 149 149 148 149 150 151 157 161 161 153 161 174 183 193 207 225 232 249 202 188 164 144 161 203 256
2 351 283 7 30 344 346 357 0 60 77 78 89 96 80 72 112 137 152 164 160 153 142 136 130 138 147 162 162 162 163 165 167 156 165 172 167 162 161 161 167 167 145 140 143 140 145 150 152 154 148 133 326 313
348 5 35 53 8 340 355 50 59 90 75 73 89 83 85 82 78 123 131 158 186 182 158 153 153 162 170 166 172 177 174 175 177 178 166 167 181 176 170 170 158 147 144 144 134 126 142 153 153 143 127 337 344 359
7 17 5 34 22 23 57 62 73 50 39 51 47 76 84 81 77 73 87 170 193 186 173 172 175 158 151 155 155 161 167 170 176 182 198 192 173 173 171 172 162 153 153 156 139 134 146 155 163 183 236 348 6 6
1 1 12 24 36 35 26 68 69 64 57 43 35 43 48 56 71 70 63 82 116 142 148 153 160 157 146 141 135 137 152 156 155 160 157 160 169 175 169 163 162 168 176 173 167 182 204 217 233 247 300 355 16 31
Wind_Speed_850mb
25 28 30 30 32 35 35 23 14 8 12 13 16 18 17 11 7 7 8 6 4 10 23 13 8 2 8 10 4 14 6 5 4 6 5 5 6 3 5 5 2 7 9 6 6 5 9 20 14 11 6 20 32 27
28 26 26 28 30 31 42 28 22 17 14 17 19 21 14 13 7 5 7 12 12 16 17 22 31 31 28 20 14 9 8 7 4 6 4 7 6 6 4 8 1 5 1 5 6 2 2 9 3 5 17 31 23 24
29 28 27 27 27 29 31 35 29 20 16 17 20 21 13 16 11 10 9 13 15 14 27 27 12 14 15 8 3 13 7 10 4 3 7 5 8 5 8 6 8 3 4 5 8 4 5 11 16 22 27 30 28 24
30 29 29 29 25 27 28 33 33 23 18 19 21 21 19 17 16 14 14 12 11 9 8 8 6 9 19 12 4 7 13 7 3 7 7 5 5 3 4 5 4 3 18 13 4 5 11 11 18 31 32 30 28 23
32 31 29 29 27 25 27 30 32 28 24 21 20 21 20 19 17 16 18 17 18 10 7 18 22 12 20 21 15 7 10 7 5 3 4 5 8 8 4 4 6 15 13 9 4 28 7 25 37 37 35 30 24 17
32 31 31 29 28 25 25 28 31 30 29 23 19 19 17 16 12 9 8 19 23 21 6 6 6 6 15 23 18 11 9 4 3 6 7 7 5 2 7 5 4 17 14 9 6 29 11 39 40 34 32 28 21 14
33 33 32 31 28 23 23 27 29 32 30 27 18 18 16 14 14 12 6 4 22 21 4 10 8 1 16 21 14 7 7 6 6 7 5 6 3 2 4 7 10 17 18 15 27 42 31 36 28 34 28 24 16 12
31 31 31 30 28 25 22 26 29 31 31 27 17 16 14 13 13 14 16 9 24 9 5 5 6 4 15 7 7 6 6 7 8 6 6 6 8 2 5 5 14 20 28 33 36 12 30 40 43 36 27 20 16 18
35 33 32 28 28 26 23 25 28 31 35 17 13 9 7 9 9 7 12 18 18 1 5 4 4 6 7 8 8 5 6 4 2 3 4 5 4 8 7 24 31 39 25 43 27 35 41 41 40 33 25 21 19 23
35 33 30 29 24 24 22 22 25 31 20 11 5 5 6 11 17 23 13 14 16 9 9 7 5 4 8 6 5 6 5 4 5 3 5 3 5 8 12 25 39 45 40 53 45 32 35 35 34 29 22 17 18 27
28 27 27 27 26 22 20 19 24 27 6 2 3 3 10 17 16 9 7 10 11 7 14 12 16 3 11 5 7 1 5 2 6 5 5 4 5 9 21 39 51 38 54 37 21 26 23 23 33 28 23 23 29 29
27 26 25 25 24 22 18 15 23 13 4 6 6 4 13 10 8 9 8 5 9 8 12 11 12 16 8 9 6 5 5 4 6 9 5 4 5 14 35 49 55 46 49 31 24 32 28 26 23 21 25 33 32 29
28 27 24 21 21 17 13 10 17 12 9 10 5 5 7 8 5 12 15 6 6 9 12 15 9 12 9 7 9 5 7 5 12 6 4 6 5 20 43 50 47 47 43 31 34 28 26 24 20 23 33 29 31 24
19 14 14 14 14 13 8 9 10 7 11 7 7 6 8 9 8 5 4 2 2 5 6 14 9 6 7 6 4 7 5 7 6 7 8 5 18 33 50 55 55 55 38 35 32 30 25 23 30 30 27 31 26 22
13 7 4 5 10 10 8 11 10 12 6 7 7 8 12 2 5 5 6 2 11 10 4 10 4 6 3 7 2 8 8 8 7 6 5 6 23 50 56 56 59 53 44 38 34 30 26 29 34 34 32 29 24 19
15 13 8 11 12 12 13 11 9 16 6 6 8 7 6 8 8 13 18 14 21 13 7 4 5 5 5 7 9 8 15 8 5 5 6 12 36 55 61 63 58 50 45 39 34 28 30 36 36 35 33 28 21 16
6 6 9 3 9 12 14 13 11 7 6 7 6 8 5 3 8 15 15 19 30 7 3 4 11 8 6 7 9 7 10 7 7 12 13 24 49 62 66 62 55 48 43 38 33 32 38 37 35 31 26 20 15 11
9 9 6 8 6 9 10 13 7 7 9 11 6 2 11 6 9 21 19 26 22 19 10 3 3 8 7 10 9 8 8 16 14 14 20 36 56 64 64 57 50 46 41 37 32 42 38 35 30 22 16 11 11 15
5 5 1 2 8 5 6 7 7 6 11 7 9 12 7 7 13 22 26 29 26 20 13 7 6 6 7 7 13 20 26 25 25 28 36 51 60 61 56 50 49 46 41 36 38 40 35 29 23 19 15 14 16 21
8 7 2 6 10 4 4 6 7 7 7 3 8 12 7 9 16 20 24 23 15 6 8 7 6 4 8 23 25 27 35 33 43 47 45 54 54 52 49 49 50 46 41 37 36 34 29 25 22 18 18 16 11 7
8 2 3 4 3 9 6 5 8 9 4 6 7 9 7 17 13 8 9 7 9 8 8 12 9 13 15 22 22 30 33 43 49 64 70 56 48 46 47 47 48 48 42 41 36 29 21 19 23 26 20 11 5 13
4 6 3 8 7 6 9 11 8 6 6 6 6 5 4 7 3 5 11 12 9 10 9 7 11 13 22 29 39 42 46 45 42 50 54 55 54 49 47 48 51 46 38 35 31 27 24 24 30 27 16 6 7 15
8 12 9 9 9 8 5 9 8 10 6 2 7 5 7 5 9 16 8 8 8 10 14 14 15 22 37 48 53 51 42 36 41 48 49 44 43 40 43 45 45 42 35 31 30 32 27 28 25 18 9 4 14 14
18 8 6 6 9 4 5 9 11 7 5 3 4 1 3 9 13 3 4 5 7 7 18 30 40 55 54 55 51 44 39 38 42 40 38 39 41 38 37 38 39 33 27 28 29 29 30 25 21 15 8 1 10 10
7 8 7 6 6 7 8 7 8 5 6 10 6 10 8 17 6 5 4 6 13 12 31 45 54 54 69 54 45 40 37 31 35 41 37 38 42 43 39 34 30 28 31 28 26 22 23 28 30 21 15 11 9 14
6 5 7 9 7 9 4 5 6 6 4 6 10 1 5 3 5 6 3 10 20 26 34 49 59 61 54 50 46 40 34 29 27 32 34 33 32 39 41 35 28 23 28 33 22 24 25 23 20 19 19 19 17 11
3 6 8 10 9 10 6 4 3 2 5 4 3 1 4 6 5 4 13 21 39 38 38 40 41 47 50 44 41 39 35 28 20 25 30 31 33 34 31 27 25 27 33 37 31 24 17 9 11 12 11 13 15 9
7 10 7 13 6 5 4 2 3 3 3 2 4 2 4 5 3 7 17 39 48 55 45 38 33 34 39 40 40 38 33 27 26 32 35 37 32 31 27 26 30 33 29 26 21 15 9 8 9 11 12 13 15 9
6 9 5 6 4 5 5 3 4 4 9 4 2 4 4 7 7 23 37 48 53 51 26 32 37 38 37 35 34 31 30 29 33 36 34 32 33 24 23 29 31 26 22 19 15 12 11 11 10 11 13 10 8 11
3 10 6 4 3 4 8 12 13 16 19 19 19 27 30 27 20 33 45 51 51 31 25 27 29 27 25 28 32 31 27 25 25 27 33 33 30 31 30 29 18 17 22 18 12 11 18 16 17 15 9 5 3 11
17 10 4 10 4 10 13 13 26 31 32 31 29 32 28 34 48 38 40 42 42 23 23 25 23 17 21 22 24 31 30 26 24 23 18 18 34 34 33 25 21 25 21 16 12 15 17 16 15 11 6 3 11 18
14 11 6 6 5 13 12 18 19 13 18 27 29 26 22 17 15 18 23 21 26 28 29 29 21 19 23 24 24 23 20 21 20 29 21 25 33 34 30 28 32 25 21 18 14 12 12 13 9 6 3 7 13 20
5 6 4 4 6 7 11 7 8 9 16 12 17 23 22 12 12 10 19 22 21 22 23 23 21 23 30 31 26 22 21 17 18 22 29 36 37 30 35 38 29 24 19 13 11 10 9 8 7 8 4 7 12 14
Wind_Direction_850mb
316 318 324 328 335 339 340 332 327 289 291 294 313 329 327 310 295 310 259 256 284 283 285 276 277 255 347 31 340 323 14 29 32 76 116 112 125 102 101 83 198 161 137 141 128 179 236 155 140 208 81 129 152 153
315 312 317 323 323 332 333 335 324 292 293 293 296 304 312 312 278 277 239 252 281 279 272 284 274 279 280 277 277 41 333 332 278 104 99 129 125 152 140 158 141 170 325 174 231 96 65 171 65 169 141 145 138 139
319 314 314 315 322 320 325 330 326 322 295 284 292 300 306 303 275 248 253 258 283 294 294 277 288 240 249 280 259 69 314 299 333 102 129 106 119 161 152 157 120 116 178 118 168 151 136 152 133 134 138 141 142 139
306 311 311 314 314 315 315 323 324 322 310 294 291 297 298 291 276 251 243 236 263 281 290 282 256 222 217 212 184 225 274 303 73 68 79 88 105 221 132 106 184 109 154 135 109 157 137 161 151 149 142 141 140 137
301 302 302 308 307 304 306 310 321 320 315 302 293 292 291 278 260 251 253 238 234 227 295 290 306 204 212 204 203 226 259 321 348 86 66 93 112 134 87 154 183 192 159 187 200 179 153 170 162 155 149 146 143 139
305 305 301 298 305 295 297 298 314 316 312 305 299 296 291 274 248 250 247 230 220 213 275 290 306 194 177 185 195 202 227 233 50 76 88 95 126 218 146 179 140 184 176 132 128 153 137 148 152 153 151 148 142 134
306 306 301 297 294 295 295 298 303 310 306 304 290 283 276 266 237 215 217 261 191 185 257 293 303 192 162 163 170 150 126 109 96 95 74 111 132 110 128 185 159 181 175 166 147 142 119 151 157 156 157 151 143 133
314 312 309 297 288 289 284 288 296 305 305 298 284 274 264 253 234 226 233 236 171 184 247 277 276 273 160 147 113 118 107 111 64 118 125 130 134 97 210 164 146 152 149 141 149 161 161 158 154 155 159 153 148 145
307 307 302 292 287 287 281 286 297 301 301 291 274 259 239 192 182 189 183 165 176 192 277 245 255 154 153 103 105 92 104 105 85 124 119 174 144 211 205 176 167 158 153 151 139 140 148 153 157 159 164 164 158 155
303 302 295 293 286 281 274 278 295 304 302 285 210 170 172 165 158 135 137 165 199 231 227 253 235 240 165 133 93 118 55 105 170 87 123 221 232 249 210 187 172 162 162 153 132 135 149 155 163 169 169 165 161 157
303 296 292 284 282 273 266 275 297 309 328 130 178 193 151 153 152 182 179 193 177 225 210 234 213 221 190 164 129 139 133 137 190 143 226 184 239 210 183 170 170 162 161 155 137 143 149 171 173 173 173 167 159 158
298 290 288 280 273 269 251 272 306 289 226 205 228 206 153 175 191 198 185 164 213 227 198 196 202 200 185 166 130 147 112 178 179 139 202 233 226 191 173 169 166 162 159 145 142 150 152 159 165 167 165 159 159 157
295 288 282 278 266 239 232 290 291 275 212 211 226 198 186 191 198 187 181 186 220 203 195 184 174 161 155 162 91 147 154 147 131 183 222 237 156 177 170 165 162 162 158 151 149 153 152 156 159 159 154 157 157 156
309 296 292 262 238 196 223 293 252 240 190 218 205 203 211 182 214 201 211 177 339 311 215 180 139 186 161 144 136 133 93 153 157 200 217 216 194 174 168 168 164 160 162 159 157 155 155 153 149 148 151 153 151 149
330 298 300 253 200 209 227 219 217 208 233 242 219 214 203 198 78 29 328 342 7 333 173 161 140 191 132 119 106 120 158 185 205 215 213 191 177 171 166 165 162 161 163 161 159 158 155 153 150 147 146 144 143 145
309 273 254 258 236 228 205 196 204 200 260 236 238 275 175 157 80 53 34 35 2 335 197 198 149 184 170 142 159 176 164 185 179 210 194 178 169 170 167 164 163 163 162 159 157 155 152 151 148 146 147 148 146 144
342 350 343 126 149 172 176 176 163 221 261 265 237 240 259 15 68 39 21 8 352 338 252 204 186 185 122 143 148 173 168 160 173 180 181 181 172 168 166 163 163 162 160 157 154 151 150 152 153 156 161 164 166 164
48 13 88 119 152 171 186 190 199 225 244 254 264 198 177 226 284 323 312 324 353 348 318 354 318 194 163 164 177 168 166 155 146 154 161 165 165 163 164 163 163 162 159 156 155 153 155 157 162 165 171 179 175 186
347 348 20 188 185 183 205 221 219 248 231 240 211 181 159 287 305 294 298 313 317 309 278 265 245 199 176 195 161 162 173 165 153 145 146 155 161 162 164 165 163 162 159 157 157 157 157 155 159 158 154 153 164 181
350 355 248 239 211 273 245 228 223 255 254 203 211 191 203 227 263 296 305 306 296 236 223 228 236 233 193 169 172 192 180 168 150 134 142 157 164 168 169 168 165 162 159 157 159 163 166 169 169 160 160 159 169 225
298 291 86 159 236 247 261 243 237 238 267 243 199 212 219 249 246 215 250 208 204 225 233 233 243 204 183 154 150 157 158 161 156 155 156 160 166 169 168 169 165 164 164 166 169 174 182 188 183 174 179 186 250 313
128 141 238 243 233 247 256 231 242 264 233 226 205 226 273 259 226 229 211 209 232 234 227 232 207 166 146 142 143 143 142 151 155 156 155 154 156 162 167 170 167 167 169 169 168 163 156 156 161 168 164 133 88 100
246 254 238 231 227 231 247 213 236 207 215 206 176 219 226 239 215 187 209 227 243 227 220 201 170 150 143 136 134 133 136 139 145 153 156 159 160 162 165 166 171 169 169 172 167 163 156 158 161 159 150 59 160 150
301 244 236 245 231 238 241 224 219 188 174 231 240 253 226 225 160 216 206 204 197 176 171 156 149 138 131 134 132 133 135 137 141 147 154 156 154 155 161 166 171 176 176 173 172 174 180 180 184 186 182 115 184 196
254 211 228 256 260 239 234 186 167 171 220 216 208 224 196 185 155 126 148 136 133 130 153 150 143 140 138 135 133 131 134 140 145 145 152 158 155 154 157 161 166 170 171 169 172 172 179 186 195 208 221 243 251 231
238 235 218 224 216 224 204 198 203 218 198 213 225 325 6 17 79 76 86 134 120 111 148 147 143 139 138 140 138 139 137 135 144 147 149 158 165 163 163 165 166 178 184 184 174 170 172 182 200 226 245 258 264 246
273 280 265 266 266 285 264 261 293 287 267 44 57 104 222 159 105 93 124 133 123 110 116 129 141 140 139 139 137 136 136 131 124 143 143 144 148 154 158 163 161 152 149 159 167 175 182 210 245 258 291 248 214 203
252 269 282 322 306 299 284 265 281 274 274 206 218 27 53 58 101 121 133 144 133 131 126 130 145 143 140 138 142 143 139 130 126 137 141 147 149 151 154 149 156 163 165 169 180 198 233 239 227 258 279 196 198 232
261 293 272 256 255 314 307 303 278 286 309 300 51 62 64 59 109 132 143 151 138 142 144 135 129 139 142 142 145 149 149 148 149 150 151 157 161 161 153 161 174 183 193 207 225 232 249 202 188 164 144 161 203 256
2 351 283 7 30 344 346 357 0 60 77 78 89 96 80 72 112 137 152 164 160 153 142 136 130 138 147 162 162 162 163 165 167 156 165 172 167 162 161 161 167 167 145 140 143 140 145 150 152 154 148 133 326 313
348 5 35 53 8 340 355 50 59 90 75 73 89 83 85 82 78 123 131 158 186 182 158 153 153 162 170 166 172 177 174 175 177 178 166 167 181 176 170 170 158 147 144 144 134 126 142 153 153 143 127 337 344 359
7 17 5 34 22 23 57 62 73 50 39 51 47 76 84 81 77 73 87 170 193 186 173 172 175 158 151 155 155 161 167 170 176 182 198 192 173 173 171 172 162 153 153 156 139 134 146 155 163 183 236 348 6 6
1 1 12 24 36 35 26 68 69 64 57 43 35 43 48 56 71 70 63 82 116 142 148 153 160 157 146 141 135 137 152 156 155 160 157 160 169 175 169 163 162 168 176 173 167 182 204 217 233 247 300 355 16 31